Location: Recife
(8.0585°S, 34.8848°W)
Time: 20:35:23
(UTC-03:00)

S-56A Canister/Altair - Pass Details

Date: 19 April 2026
Orbit: 633 x 2484 km, 38.9° (Epoch: 16 May)

Event Time Altitude Azimuth Distance (km) Brightness Sun altitude
Rises 10:45:07 0° 328° (NNW) 6,127 12.3 68.9°
Reaches altitude 10° 10:49:44 10° 335° (NNW) 5,041 12.1 69.3°
Maximum altitude 11:02:25 39° 38° (NE) 2,818 11.5 70.2°
Drops below altitude 10° 11:12:02 10° 103° (ESE) 3,863 11.2 70.6°
Sets 11:15:01 0° 110° (ESE) 4,603 11.4 70.6°
